Weather reports worldwide

Advertisment
Cabo Busto, Spain (8010): temperature & dewpoint: 01.08.2020 02:00:00 - 07.08.2020 02:00:00 (CEST)Cabo Busto, Spain (8010): wind speed & gusts: 01.08.2020 02:00:00 - 07.08.2020 02:00:00 (CEST)Cabo Busto, Spain (8010): wind direction: 01.08.2020 02:00:00 - 07.08.2020 02:00:00 (CEST)Cabo Busto, Spain (8010): reduced air pressure: 01.08.2020 02:00:00 - 07.08.2020 02:00:00 (CEST)Cabo Busto, Spain (8010): visibility: 01.08.2020 02:00:00 - 07.08.2020 02:00:00 (CEST)Cabo Busto, Spain (8010): sunshine duration: 01.08.2020 02:00:00 - 07.08.2020 02:00:00 (CEST)Cabo Busto, Spain (8010): precipitation: 01.08.2020 02:00:00 - 07.08.2020 02:00:00 (CEST)
Date & Time tt [°C] td [°C] ff [km/h] ff [kn] fx [km/h] fx [kn] dd ppp [hPa] vv [km] sd [min] rr [mm]
07.08.2020 02:00:00 - - - - - - - - - - -
07.08.2020 01:00:00 21,0 18,9 23 13 30 16 W 1014,6 19 0 0,0
07.08.2020 00:00:00 21,3 19,2 22 12 29 16 W 1014,3 16 0 0,0
06.08.2020 23:00:00 21,4 19,1 20 11 26 14 W 1013,8 11 0 0,0
06.08.2020 22:00:00 - - - - - - - - - - -
06.08.2020 21:00:00 23,1 19,6 9 5 16 9 W 1012,6 10 58 0,0
06.08.2020 20:00:00 23,8 19,9 9 5 12 6 WNW 1011,8 18 60 -
06.08.2020 19:00:00 24,0 19,9 4 2 14 8 ENE 1011,7 20 39 0,0
06.08.2020 18:00:00 - - - - - - - - - - -
06.08.2020 17:00:00 23,5 18,6 5 3 10 5 NE 1012,0 10 60 0,0
06.08.2020 16:00:00 - - - - - - - - - - -
06.08.2020 15:00:00 22,9 18,0 5 3 10 6 WNW 1012,5 12 60 0,0
06.08.2020 14:00:00 22,7 18,2 7 4 10 5 WNW 1012,7 7 60 -
06.08.2020 13:00:00 21,8 17,8 8 4 12 6 NW 1012,7 8 60 0,0
06.08.2020 12:00:00 21,2 17,2 8 4 9 5 NW 1012,7 10 60 0,0
06.08.2020 11:00:00 21,3 18,5 8 4 11 6 W 1012,9 17 60 0,0
06.08.2020 10:00:00 19,4 17,2 8 5 11 6 W 1013,1 6 60 0,0
06.08.2020 09:00:00 18,4 16,7 5 3 13 7 SSW 1013,0 6 48 0,0
06.08.2020 08:00:00 16,3 14,6 11 6 16 8 SSE 1013,1 20 0 -
06.08.2020 07:00:00 16,3 14,6 13 7 16 9 SSE 1013,1 18 0 0,0
06.08.2020 06:00:00 - - - - - - - - - - -
06.08.2020 05:00:00 17,1 15,3 11 6 14 8 SSE 1013,5 16 0 0,0
06.08.2020 04:00:00 - - - - - - - - - - -
06.08.2020 03:00:00 17,8 16,0 10 5 13 7 SSE 1014,0 10 0 0,0
06.08.2020 02:00:00 - - - - - - - - - - -
06.08.2020 01:00:00 18,6 16,4 10 6 14 8 SSE 1014,4 10 0 0,0
06.08.2020 00:00:00 - - - - - - - - - - -
05.08.2020 23:00:00 20,4 17,2 4 2 14 8 W 1014,8 20 0 0,0
05.08.2020 22:00:00 - - - - - - - - - - -
05.08.2020 21:00:00 21,3 17,3 3 1 13 7 W 1014,2 20 1 0,0
05.08.2020 20:00:00 - - - - - - - - - - -
05.08.2020 19:00:00 23,9 18,1 11 6 15 8 W 1014,0 20 60 0,0
05.08.2020 18:00:00 24,3 18,2 10 5 15 8 W 1013,8 20 60 0,0
05.08.2020 17:00:00 - - - - - - - - - - -
05.08.2020 16:00:00 21,7 17,1 5 3 11 6 NNE 1014,1 20 60 0,0
05.08.2020 15:00:00 - - - - - - - - - - -
05.08.2020 14:00:00 22,5 17,4 5 3 14 7 W 1014,3 19 60 -
05.08.2020 13:00:00 21,9 17,5 7 4 12 7 W 1014,2 20 60 0,0
05.08.2020 12:00:00 20,9 16,7 9 5 11 6 NW 1014,0 20 60 0,0
05.08.2020 11:00:00 21,0 16,8 6 4 - - W 1013,9 20 60 0,0
05.08.2020 10:00:00 19,5 16,1 8 4 10 6 WSW 1013,9 20 60 0,0
05.08.2020 09:00:00 17,5 15,2 9 5 17 9 S 1013,8 20 49 0,0
05.08.2020 08:00:00 15,5 13,6 14 7 17 9 SSE 1013,7 20 0 -
05.08.2020 07:00:00 15,9 13,8 12 7 15 8 S 1013,3 20 0 0,0
05.08.2020 06:00:00 - - - - - - - - - - -
05.08.2020 05:00:00 16,2 13,9 9 5 14 8 S 1013,7 20 0 0,0
05.08.2020 04:00:00 17,3 14,6 10 5 15 8 SW 1013,9 20 0 0,0
05.08.2020 03:00:00 17,9 15,3 10 5 13 7 WSW 1014,6 20 0 0,0
05.08.2020 02:00:00 17,2 14,4 10 5 20 11 S 1015,0 20 0 -
05.08.2020 01:00:00 - - - - - - - - - - -
05.08.2020 00:00:00 18,8 15,7 4 2 28 15 ESE 1015,5 20 0 0,0
04.08.2020 23:00:00 - - - - - - - - - - -
04.08.2020 22:00:00 19,6 16,6 17 9 32 17 ENE 1015,5 20 38 0,0
04.08.2020 21:00:00 20,3 16,6 18 10 - - NE 1015,6 14 60 0,0
04.08.2020 20:00:00 - - - - - - - - - - -
04.08.2020 19:00:00 21,2 16,4 24 13 37 20 NE 1015,9 19 60 0,0
04.08.2020 18:00:00 21,5 16,5 24 13 36 19 NE 1016,3 16 60 0,0
04.08.2020 17:00:00 22,1 16,6 20 11 31 17 NE 1016,9 18 60 0,0
04.08.2020 16:00:00 - - - - - - - - - - -
04.08.2020 15:00:00 22,1 17,1 9 5 18 10 ENE 1017,8 9 60 0,0
04.08.2020 14:00:00 - - - - - - - - - - -
04.08.2020 13:00:00 21,7 17,3 5 3 10 5 NNW 1018,6 20 60 0,0
04.08.2020 12:00:00 - - - - - - - - - - -
04.08.2020 11:00:00 21,1 16,7 5 3 9 5 WNW 1018,8 8 60 0,0
04.08.2020 10:00:00 20,7 16,9 5 3 11 6 W 1018,7 12 27 0,0
04.08.2020 09:00:00 19,1 16,0 4 2 9 5 SW 1018,6 19 0 0,0
04.08.2020 08:00:00 18,6 15,4 6 4 9 5 WSW 1018,3 20 0 -
04.08.2020 07:00:00 18,6 15,4 6 3 9 5 WSW 1018,2 20 0 0,0
04.08.2020 06:00:00 - - - - - - - - - - -
04.08.2020 05:00:00 18,1 14,8 6 4 8 4 S 1018,5 20 0 0,0
04.08.2020 04:00:00 18,7 15,3 8 5 13 7 WSW 1018,8 20 0 0,0
04.08.2020 03:00:00 - - - - - - - - - - -
04.08.2020 02:00:00 18,6 14,7 8 4 10 5 W 1019,4 18 0 -
04.08.2020 01:00:00 - - - - - - - - - - -
04.08.2020 00:00:00 19,2 14,9 4 2 6 3 S 1019,6 20 0 0,0
03.08.2020 23:00:00 - - - - - - - - - - -
03.08.2020 22:00:00 19,6 14,8 5 3 10 5 W 1019,0 20 0 0,0
03.08.2020 21:00:00 20,1 14,9 5 3 9 5 W 1018,8 20 0 0,0
03.08.2020 20:00:00 21,2 15,5 6 4 16 8 W 1019,0 15 51 -
03.08.2020 19:00:00 - - - - - - - - - - -
03.08.2020 18:00:00 21,0 14,1 5 3 11 6 NE 1018,5 14 60 0,0
03.08.2020 17:00:00 21,8 14,9 5 3 12 6 NNW 1018,7 20 60 0,0
03.08.2020 16:00:00 21,4 15,0 6 3 10 5 NNW 1019,0 20 50 0,0
03.08.2020 15:00:00 21,9 14,8 5 3 11 6 N 1019,4 20 60 0,0
03.08.2020 14:00:00 21,6 15,2 3 2 11 6 N 1019,5 18 60 -
03.08.2020 13:00:00 - - - - - - - - - - -
03.08.2020 12:00:00 20,5 14,6 6 3 11 6 NW 1019,3 20 60 0,0
03.08.2020 11:00:00 19,9 14,9 3 2 6 3 N 1019,1 20 60 0,0
03.08.2020 10:00:00 19,2 15,4 3 1 9 5 NNW 1019,2 3,8 60 0,0
03.08.2020 09:00:00 17,3 14,6 6 3 11 6 S 1019,3 20 28 0,0
03.08.2020 08:00:00 15,7 13,4 7 4 12 6 SSW 1019,2 20 0 -
03.08.2020 07:00:00 15,4 12,8 10 5 12 7 S 1018,9 20 0 0,0
03.08.2020 06:00:00 15,9 12,8 9 5 11 6 S 1019,3 20 0 0,0
03.08.2020 05:00:00 16,9 13,9 6 3 9 5 SW 1019,3 20 0 0,0
03.08.2020 04:00:00 16,7 13,7 6 3 11 6 S 1019,7 20 0 0,0
03.08.2020 03:00:00 - - - - - - - - - - -
03.08.2020 02:00:00 17,8 13,6 4 2 9 5 E 1020,3 20 0 -
03.08.2020 01:00:00 17,9 13,4 8 4 16 9 ESE 1020,3 20 0 0,0
03.08.2020 00:00:00 18,3 14,2 7 4 16 9 ESE 1020,8 20 0 0,0
02.08.2020 23:00:00 18,7 14,1 11 6 23 12 E 1021,0 20 0 0,0
02.08.2020 22:00:00 18,8 14,0 13 7 22 12 E 1020,9 20 0 0,0
02.08.2020 21:00:00 19,0 14,4 10 5 - - ENE 1021,3 20 0 0,0
02.08.2020 20:00:00 19,5 14,7 9 5 16 9 NE 1021,3 20 0 -
02.08.2020 19:00:00 20,4 14,3 3 2 - - E 1021,2 10 3 0,0
02.08.2020 18:00:00 20,8 14,9 8 4 16 9 NE 1021,2 15 51 0,0
02.08.2020 17:00:00 21,6 15,4 9 5 14 8 NE 1021,2 13 60 0,0
02.08.2020 16:00:00 - - - - - - - - - - -
02.08.2020 15:00:00 21,4 15,0 11 6 16 9 NE 1022,3 20 58 0,0
02.08.2020 14:00:00 21,2 15,5 5 3 12 6 NNW 1022,7 20 56 -
02.08.2020 13:00:00 21,1 15,6 5 3 8 4 NE 1022,6 20 54 0,0
02.08.2020 12:00:00 19,9 15,3 5 3 - - ENE 1022,9 19 28 0,0
02.08.2020 11:00:00 19,2 15,4 5 3 8 4 NE 1022,7 18 2 0,0
02.08.2020 10:00:00 18,6 15,9 3 1 8 4 WNW 1022,7 19 3 0,0
02.08.2020 09:00:00 17,8 15,4 4 2 10 5 WSW 1022,2 20 0 0,0
02.08.2020 08:00:00 17,3 15,3 8 4 13 7 S 1022,0 20 0 -
02.08.2020 07:00:00 17,0 15,0 9 5 13 7 S 1021,9 20 0 0,0
02.08.2020 06:00:00 17,2 15,2 10 6 12 7 SSE 1021,7 20 0 0,0
02.08.2020 05:00:00 17,2 15,2 10 5 13 7 S 1021,8 20 0 0,0
02.08.2020 04:00:00 - - - - - - - - - - -
02.08.2020 03:00:00 17,3 15,3 7 4 11 6 S 1022,3 20 0 0,0
02.08.2020 02:00:00 17,6 15,3 8 4 9 5 S 1022,6 20 0 -
02.08.2020 01:00:00 - - - - - - - - - - -
02.08.2020 00:00:00 18,2 15,6 7 4 10 5 SSE 1023,0 20 0 0,0
01.08.2020 23:00:00 18,8 16,0 1 1 4 2 S 1023,1 20 0 0,0
01.08.2020 22:00:00 18,9 16,1 1 1 6 3 SSW 1022,7 20 0 0,0
01.08.2020 21:00:00 18,7 15,8 5 3 12 6 SE 1022,9 20 0 0,0
01.08.2020 20:00:00 19,0 16,0 6 4 13 7 NE 1022,7 20 0 -
01.08.2020 19:00:00 - - - - - - - - - - -
01.08.2020 18:00:00 20,3 17,1 10 6 16 9 W 1022,8 20 0 0,0
01.08.2020 17:00:00 20,6 17,2 11 6 15 8 W 1022,8 20 0 0,0
01.08.2020 16:00:00 19,9 17,3 3 2 13 7 WNW 1022,8 20 6 0,0
01.08.2020 15:00:00 - - - - - - - - - - -
01.08.2020 14:00:00 18,9 16,9 11 6 13 7 W 1022,9 2,5 0 -
01.08.2020 13:00:00 - - - - - - - - - - -
01.08.2020 12:00:00 19,2 16,8 11 6 16 9 W 1022,1 20 0 0,0
01.08.2020 11:00:00 - - - - - - - - - - -
01.08.2020 10:00:00 18,8 16,4 15 8 21 12 W 1020,9 20 0 0,0
01.08.2020 09:00:00 - - - - - - - - - - -
01.08.2020 08:00:00 17,9 15,9 12 7 15 8 W 1020,2 17 0 -
01.08.2020 07:00:00 18,3 16,1 12 7 15 8 W 1020,4 17 0 0,0
01.08.2020 06:00:00 18,5 16,3 9 5 15 8 WSW 1020,2 17 0 0,0
01.08.2020 05:00:00 18,4 16,2 11 6 14 8 W 1019,8 19 0 0,0
01.08.2020 04:00:00 18,6 16,4 11 6 14 8 W 1019,9 15 0 0,0
01.08.2020 03:00:00 18,7 16,5 10 5 15 8 WSW 1020,0 14 0 0,0
01.08.2020 02:00:00 - - - - - - - - - - -

tt = temperature
td = dewpoint
ff = wind speed
fx = gusts
dd = wind direction
ppp = reduced air pressure
vv = visibility
sd = sunshine duration
rr = precipitation

Next stations